"Pseudo-MPEC" for C2YQV42

Created 2020 Aug 7 17:07:05 UT using Find_Orb

Click here for an explanation of pseudo-MPECs

 
 Astrometry: 
     C2YQV42  C2020 08 01.46277 01 09 16.19 +27 36 22.6    ~81Bq 20.8 GVNEOCPG96
     C2YQV42  C2020 08 01.46710 01 09 16.65 +27 36 34.6    ~81Bq 21.2 GVNEOCPG96
     C2YQV42  C2020 08 01.47143 01 09 17.01 +27 36 45.4    ~81Bq 21.2 GVNEOCPG96
     C2YQV42  C2020 08 01.47576 01 09 17.52 +27 36 58.9    ~81Bq 21.0 GVNEOCPG96
     C2YQV42  C2020 08 01.48363 01 09 18.33 +27 37 21.2    ~81C7 21.6 GVNEOCPG96
     C2YQV42  C2020 08 01.48516 01 09 18.51 +27 37 25.5    ~81C7 21.4 GVNEOCPG96
     C2YQV42  C2020 08 01.48591 01 09 18.64 +27 37 27.9    ~81C7       VNEOCPG96
     C2YQV42  C2020 08 02.42435 01 10 57.91 +28 22 07.4    ~83Aq 21.3 GVNEOCPG96
     C2YQV42  C2020 08 02.42580 01 10 58.06 +28 22 12.3    ~83Aq 21.2 GVNEOCPG96
     C2YQV42  C2020 08 02.42869 01 10 58.34 +28 22 20.6    ~83Aq 21.5 GVNEOCPG96
     C2YQV42  C2020 08 07.41971 01 19 52.89 +32 25 37.5    ~87Ab 21.3 GVNEOCPG96
     C2YQV42  C2020 08 07.42115 01 19 53.05 +32 25 41.3    ~87Ab 20.8 GVNEOCPG96
     C2YQV42  C2020 08 07.42260 01 19 53.25 +32 25 45.7    ~87Ab 20.6 GVNEOCPG96
     C2YQV42  C2020 08 07.42405 01 19 53.35 +32 25 50.1    ~87Ab 20.8 GVNEOCPG96

Station data:
(G96) Mt. Lemmon Survey  (N32.442754 W110.788720)  US/Arizona.  Observers T.
   A. Pruyne, B. M. Africano, E. J. Christensen, G. A. Farneth, D. C. Fuls,
   A. R. Gibbs, A. D. Grauer, H. Gröller, J. A. Johnson, R. A. Kowalski, S.
   M. Larson, G. J. Leonard, D. Rankin, R. L. Seaman, F. C. Shelly. 1.5-m
   reflector + 10K CCD.

Orbital elements:  C2YQV42
   Perihelion 2020 Oct 5.739465 +/- 2.11 TT = 17:44:49 (JD 2459128.239465)
Epoch 2020 Aug  7.0 TT = JDT 2459068.5   Earth MOID: 0.5152   AutoNEOCP
M 343.28567910 +/- 2.0              (J2000 ecliptic)
n   0.27978691 +/- 0.0256           Peri.   71.81964 +/- 1.7
a   2.31517831 +/- 0.141            Node   320.53774 +/- 0.56
e   0.4229054 +/- 0.0297            Incl.   26.48223 +/- 0.38
P   3.52                   H 19.3   G  0.15   U 10.3  
q 1.33607682 +/- 0.0133    Q 3.29427979 +/- 0.283
From 14 observations 2020 Aug. 1-7; mean residual 0".44
Residuals in arcseconds: 
200801 G96  .29-  .74+    200801 G96  .36+  .12-    200807 G96  .24-  .33+    
200801 G96  .01-  .40+    200801 G96  1.1+  .14+    200807 G96  .12-  .17-    
200801 G96  1.1-  1.1-    200802 G96  .06+  .48-    200807 G96  .50+  .11-    
200801 G96  .12-  .04+    200802 G96  .08+  .24+    200807 G96  .15-  .04-    
200801 G96  .03+  .07-    200802 G96  .12-  .23+    

Ephemerides (geocentric):
Date (UTC) HH   RA              Dec         delta   r     elong  mag " sig PA
---- -- -- --  -------------   -----------  ------ ------ -----  --- ---- ---
2020 08 07 17  01 20 23.962   +32 39 57.90  .83210 1.4493 103.0 21.4 .193 151
2020 08 07 18  01 20 28.490   +32 42 02.25  .83182 1.4492 103.0 21.4 .215 149
2020 08 07 19  01 20 33.018   +32 44 06.62  .83155 1.4490 103.0 21.4 .238 147
2020 08 07 20  01 20 37.548   +32 46 11.04  .83127 1.4489 103.0 21.4 .261 146
2020 08 07 21  01 20 42.079   +32 48 15.48  .83099 1.4487 103.0 21.4 .285 145
2020 08 07 22  01 20 46.611   +32 50 19.97  .83072 1.4486 103.0 21.4 .309 144
2020 08 07 23  01 20 51.144   +32 52 24.48  .83044 1.4484 103.0 21.4 .333 143
2020 08 08 00  01 20 55.678   +32 54 29.03  .83017 1.4483 103.1 21.4 .358 142
2020 08 08 01  01 21 00.213   +32 56 33.61  .82989 1.4481 103.1 21.4 .384 142
2020 08 08 02  01 21 04.749   +32 58 38.23  .82962 1.4480 103.1 21.4 .409 141
2020 08 08 03  01 21 09.286   +33 00 42.88  .82934 1.4478 103.1 21.4 .435 141
2020 08 08 04  01 21 13.825   +33 02 47.56  .82907 1.4477 103.1 21.4 .462 141
2020 08 08 05  01 21 18.364   +33 04 52.28  .82879 1.4475 103.1 21.4 .489 140
2020 08 08 06  01 21 22.904   +33 06 57.03  .82852 1.4474 103.1 21.4 .516 140
2020 08 08 07  01 21 27.446   +33 09 01.82  .82824 1.4472 103.1 21.4 .544 140
2020 08 08 08  01 21 31.989   +33 11 06.64  .82797 1.4471 103.1 21.4 .572 139
2020 08 08 09  01 21 36.532   +33 13 11.49  .82770 1.4469 103.1 21.4 .600 139
2020 08 08 10  01 21 41.077   +33 15 16.37  .82743 1.4468 103.1 21.4 .629 139
2020 08 08 11  01 21 45.623   +33 17 21.29  .82715 1.4467 103.1 21.4 .658 139
2020 08 08 12  01 21 50.170   +33 19 26.24  .82688 1.4465 103.1 21.4 .687 139
2020 08 08 13  01 21 54.718   +33 21 31.22  .82661 1.4464 103.1 21.4 .717 138
2020 08 08 14  01 21 59.267   +33 23 36.24  .82634 1.4462 103.1 21.4 .747 138
2020 08 08 15  01 22 03.817   +33 25 41.29  .82607 1.4461 103.1 21.4 .777 138
2020 08 08 16  01 22 08.369   +33 27 46.37  .82580 1.4459 103.1 21.4 .808 138
2020 08 08 17  01 22 12.921   +33 29 51.49  .82553 1.4458 103.2 21.4 .840 138
2020 08 08 18  01 22 17.475   +33 31 56.64  .82526 1.4456 103.2 21.4 .871 138
2020 08 08 19  01 22 22.029   +33 34 01.82  .82499 1.4455 103.2 21.4 .903 138
2020 08 08 20  01 22 26.585   +33 36 07.03  .82472 1.4453 103.2 21.3 .935 138
2020 08 08 21  01 22 31.142   +33 38 12.27  .82445 1.4452 103.2 21.3 .968 138
2020 08 08 22  01 22 35.700   +33 40 17.55  .82418 1.4450 103.2 21.3 1.00 138
2020 08 08 23  01 22 40.259   +33 42 22.86  .82391 1.4449 103.2 21.3 1.03 138
2020 08 09 00  01 22 44.819   +33 44 28.20  .82364 1.4447 103.2 21.3 1.07 138
2020 08 09 01  01 22 49.380   +33 46 33.58  .82337 1.4446 103.2 21.3 1.10 138
2020 08 09 02  01 22 53.943   +33 48 38.98  .82311 1.4445 103.2 21.3 1.14 138
2020 08 09 03  01 22 58.506   +33 50 44.42  .82284 1.4443 103.2 21.3 1.17 138
2020 08 09 04  01 23 03.071   +33 52 49.89  .82257 1.4442 103.2 21.3 1.21 138
2020 08 09 05  01 23 07.637   +33 54 55.39  .82230 1.4440 103.2 21.3 1.24 138
2020 08 09 06  01 23 12.204   +33 57 00.92  .82204 1.4439 103.2 21.3 1.28 138
2020 08 09 07  01 23 16.772   +33 59 06.49  .82177 1.4437 103.2 21.3 1.31 138
2020 08 09 08  01 23 21.341   +34 01 12.08  .82151 1.4436 103.2 21.3 1.35 138
2020 08 09 09  01 23 25.912   +34 03 17.71  .82124 1.4434 103.2 21.3 1.39 138
2020 08 09 10  01 23 30.483   +34 05 23.37  .82097 1.4433 103.2 21.3 1.43 138
2020 08 09 11  01 23 35.056   +34 07 29.06  .82071 1.4431 103.3 21.3 1.46 138
2020 08 09 12  01 23 39.629   +34 09 34.78  .82044 1.4430 103.3 21.3 1.50 138
2020 08 09 13  01 23 44.204   +34 11 40.54  .82018 1.4429 103.3 21.3 1.54 138
2020 08 09 14  01 23 48.780   +34 13 46.32  .81992 1.4427 103.3 21.3 1.58 138
2020 08 09 15  01 23 53.357   +34 15 52.14  .81965 1.4426 103.3 21.3 1.62 138
2020 08 09 16  01 23 57.936   +34 17 57.98  .81939 1.4424 103.3 21.3 1.66 138